Location: Unspecified
(0.0000°N, 0.0000°E)
Time: 02:22:37
(UTC+00:00)

Vanguard 2 - Pass Details

Date: 14 December 2018
Orbit: 553 x 2939 km, 32.9° (Epoch: 16 January)

Event Time Altitude Azimuth Distance (km) Brightness Sun altitude
Rises 23:36:14 0° 342° (NNW) 4,308 - -66.3°
Reaches altitude 10° 23:42:15 10° 14° (NNE) 3,956 - -66.5°
Maximum altitude 23:45:20 11° 31° (NNE) 4,134 - -66.6°
Drops below altitude 10° 23:48:48 10° 48° (NE) 4,560 - -66.7°
Sets 23:57:46 0° 76° (ENE) 6,226 - -66.7°
